{"data":{"norad_id":63072,"intl_designator":"2025-035W","name":"STARLINK-33623","alt_names":[],"object_type":"PAYLOAD","status":"ACTIVE","operator":null,"country":"US","launch_date":"2025-02-21","launch_site_code":"AFETR","launch_vehicle":null,"mission":null,"orbit_class":"UNKNOWN","rcs_meters":null,"size_class":null,"mass_kg":null,"dimensions":null,"purposes":["comms"],"wikipedia_slug":null,"has_3d_model":false,"image_url":null,"decayed_at":null,"tle_current":{"epoch":"2026-05-25T04:12:43.035840Z","epoch_age_seconds":63175,"freshness":"FRESH","line1":"1 63072U 25035W   26145.17549810  .00017370  00000+0  63890-3 0  9992","line2":"2 63072  43.0001  75.4399 0001112 268.3042  91.7682 15.27597788 71421","mean_motion":15.27597788,"eccentricity":0.0001112,"inclination_deg":43.0001,"raan_deg":75.4399,"arg_perigee_deg":268.3042,"mean_anomaly_deg":91.7682,"bstar":0.0006389,"rev_number":7142,"period_min":94.265651031435,"perigee_km":482.23287491429,"apogee_km":483.75879085633,"semimajor_km":6861.1328328853,"source":"CELESTRAK","updated_at":"2026-05-25T13:38:19.875674Z"}}}